Temp
9 10 11 12 12 11 12 12 11 10 10 8 9 8 9 9 8 8 9 9 8 8 8 7 8 8 8 9 9 8 9 8 9 9 8 8 8 8 8 8 8 8 8 8
9 11 11 11 10 11 12 12 11 10 10 9 8 9 9 9 8 8 8 8 9 9 8 7 8 8 8 9 9 9 9 9 8 8 8 8 8 8 8 8 8 8 8 8
11 11 10 10 10 11 12 12 12 11 10 10 9 9 10 10 9 8 8 8 9 9 9 8 8 8 8 9 9 9 8 8 9 9 8 8 8 8 8 8 8 8 8 8
10 10 9 10 11 11 13 11 10 10 10 12 9 14 9 11 10 9 7 8 9 9 9 8 8 9 8 8 9 9 9 9 9 9 8 8 8 8 8 8 9 9 8 8
11 9 10 10 11 11 12 11 10 11 11 11 12 12 11 11 10 11 10 8 9 9 9 9 8 8 8 8 9 9 10 9 9 9 9 8 8 8 9 9 9 9 8 8
10 9 10 11 11 11 10 10 10 10 11 13 14 12 14 10 11 10 10 10 9 9 9 8 8 8 7 8 9 9 10 10 9 9 9 9 9 9 9 9 9 9 9 9
10 10 10 10 10 10 10 12 13 14 14 15 12 12 13 11 10 11 10 10 11 9 9 9 8 8 7 9 9 9 10 10 10 9 9 9 9 9 8 8 9 9 9 9
12 11 10 10 11 11 11 12 14 13 13 13 11 12 13 11 12 12 11 10 10 10 10 9 9 9 9 9 9 9 10 10 9 9 9 9 9 8 8 8 8 8 9 9
12 12 11 10 11 11 12 12 13 13 12 14 14 13 11 11 11 12 11 10 9 10 9 9 9 9 9 9 9 9 9 9 9 9 9 9 9 8 9 9 8 8 9 9
11 12 11 10 10 10 11 12 12 12 12 13 15 14 13 11 12 12 11 11 10 10 10 9 9 10 9 9 9 9 9 9 9 9 9 9 9 9 9 9 8 9 9 9
11 11 11 10 10 12 11 11 12 12 12 11 13 12 12 13 13 12 12 9 10 9 9 8 8 10 9 9 9 8 9 9 9 10 9 9 9 9 9 9 9 9 9 9
10 12 12 12 10 11 11 11 12 12 9 13 8 13 12 13 13 12 12 11 10 9 10 9 10 10 9 9 9 9 8 9 9 9 10 10 9 9 9 9 9 9 9 9
10 12 13 12 11 11 11 11 11 12 8 8 13 12 11 12 12 11 11 11 10 9 9 9 9 9 9 9 9 9 8 8 8 9 9 9 9 9 9 9 9 9 9 9
10 11 11 12 12 10 11 11 11 12 13 13 13 13 10 11 11 11 11 10 10 10 9 9 9 9 8 9 9 9 8 8 8 8 8 9 9 9 9 9 9 9 9 9
9 10 10 10 10 10 11 11 11 12 12 13 11 11 11 12 12 11 10 10 10 10 9 8 8 8 8 8 8 9 8 8 8 8 8 8 8 8 9 9 9 9 9 9
9 10 9 10 9 10 11 10 10 10 10 10 10 10 11 11 11 11 10 10 10 9 9 9 8 7 8 8 8 8 8 8 8 8 8 8 8 8 8 8 8 9 9 10
9 9 9 11 9 9 10 10 9 9 10 10 11 9 10 10 11 10 10 10 10 10 9 8 8 8 7 7 7 8 8 8 8 8 8 8 8 9 8 8 8 8 8 8
8 8 9 10 9 10 9 9 9 8 8 8 9 9 9 9 9 10 10 9 9 10 9 9 8 8 8 7 8 7 7 8 7 8 8 8 8 8 8 8 8 8 8 8
7 8 9 9 10 10 8 8 8 8 9 8 7 8 8 8 8 9 9 8 9 9 9 9 8 8 7 8 7 7 8 8 8 8 8 8 8 8 8 8 8 8 8 8
7 7 8 9 9 10 8 8 8 8 8 7 7 7 8 8 8 7 8 8 8 8 9 9 8 8 8 8 7 7 8 7 7 7 7 8 8 8 7 8 8 8 8 8
7 7 8 9 9 9 7 8 8 7 8 7 7 7 7 6 7 7 7 7 7 8 8 8 8 8 8 7 7 7 7 7 7 7 8 7 8 8 8 9 8 9 8 8
7 8 8 8 8 8 7 7 7 6 7 6 6 6 6 6 6 7 7 7 7 7 7 8 8 8 8 8 8 8 8 7 7 8 8 8 8 8 7 8 8 8 7 7
7 7 8 7 8 7 6 6 6 6 5 6 6 6 6 6 6 6 6 6 6 7 7 7 8 8 8 8 8 8 8 8 8 8 8 8 8 8 8 8 7 8 7 7
6 6 6 6 6 6 6 6 6 5 4 5 5 5 6 6 6 6 6 6 5 6 6 7 7 7 8 8 8 7 7 8 8 8 7 7 7 7 7 6 7 6 7 6
7 6 6 6 6 6 5 5 5 5 5 5 5 5 5 6 6 6 6 6 6 6 6 6 7 7 7 8 8 8 7 7 7 7 7 7 7 7 7 7 6 6 6 5
6 6 6 7 6 5 5 5 5 5 4 4 4 4 5 5 5 5 5 5 5 5 6 6 6 7 7 6 7 7 7 5 6 6 6 6 6 6 6 6 5 5 5 5
Height
3162 3167 3167 3170 3172 3172 3174 3175 3175 3175 3174 3174 3175 3174 3174 3177 3178 3179 3185 3191 3197 3199 3202 3200 3200 3201 3201 3202 3203 3205 3208 3210 3212 3215 3218 3221 3223 3225 3227 3230 3231 3233 3236 3237
3163 3164 3167 3168 3171 3174 3174 3174 3176 3175 3173 3173 3173 3173 3171 3173 3174 3177 3182 3185 3194 3198 3200 3200 3199 3200 3201 3202 3204 3206 3209 3211 3213 3216 3219 3221 3224 3226 3228 3230 3232 3233 3235 3237
3162 3164 3164 3168 3170 3173 3173 3173 3174 3176 3174 3172 3171 3171 3168 3169 3170 3173 3177 3184 3192 3196 3198 3198 3198 3200 3201 3202 3203 3206 3209 3211 3213 3216 3219 3221 3223 3226 3228 3230 3232 3234 3236 3237
3162 3163 3165 3168 3169 3172 3170 3173 3175 3175 3175 3171 3172 3164 3164 3165 3167 3170 3176 3180 3188 3193 3195 3197 3197 3199 3201 3202 3203 3205 3208 3211 3213 3216 3218 3220 3223 3225 3228 3229 3231 3233 3235 3236
3161 3163 3165 3167 3169 3171 3171 3172 3174 3174 3173 3171 3168 3167 3162 3162 3165 3167 3171 3178 3183 3188 3192 3195 3196 3198 3200 3202 3203 3205 3207 3210 3212 3214 3218 3220 3222 3224 3227 3229 3231 3232 3234 3236
3161 3161 3164 3166 3168 3170 3171 3173 3173 3172 3171 3166 3162 3164 3157 3161 3163 3168 3168 3173 3179 3186 3190 3192 3195 3197 3199 3200 3202 3203 3206 3209 3212 3214 3216 3219 3222 3224 3226 3229 3231 3233 3235 3236
3159 3160 3162 3164 3166 3168 3170 3170 3166 3165 3164 3158 3162 3163 3158 3161 3162 3162 3165 3168 3173 3181 3186 3189 3191 3193 3196 3198 3201 3202 3205 3208 3210 3213 3216 3218 3221 3223 3226 3228 3229 3231 3234 3236
3155 3157 3159 3161 3163 3165 3166 3166 3160 3164 3162 3161 3162 3160 3158 3159 3158 3158 3161 3166 3168 3173 3182 3186 3188 3191 3194 3197 3199 3201 3203 3206 3208 3211 3215 3217 3219 3222 3224 3226 3228 3230 3232 3234
3154 3154 3157 3159 3161 3164 3163 3164 3162 3161 3162 3156 3153 3157 3157 3159 3155 3155 3157 3160 3160 3165 3177 3182 3185 3189 3192 3195 3198 3200 3202 3204 3208 3210 3212 3215 3218 3220 3222 3224 3227 3228 3230 3231
3155 3153 3156 3158 3160 3161 3161 3163 3164 3162 3160 3156 3148 3152 3154 3157 3155 3153 3154 3155 3155 3159 3169 3178 3182 3186 3190 3193 3196 3198 3201 3203 3206 3208 3210 3212 3215 3218 3220 3222 3224 3226 3228 3230
3155 3153 3156 3157 3157 3154 3160 3160 3160 3160 3160 3161 3152 3155 3155 3155 3155 3153 3153 3153 3152 3155 3163 3172 3178 3184 3189 3192 3194 3196 3198 3200 3202 3205 3208 3210 3212 3215 3218 3220 3222 3224 3225 3227
3155 3151 3150 3151 3153 3155 3155 3147 3151 3158 3164 3156 3163 3156 3155 3155 3154 3154 3153 3153 3154 3153 3157 3166 3172 3179 3184 3188 3192 3194 3196 3198 3200 3202 3205 3207 3210 3212 3215 3217 3219 3221 3222 3224
3154 3151 3147 3149 3154 3153 3155 3154 3154 3152 3153 3162 3154 3153 3153 3154 3153 3153 3153 3153 3153 3154 3155 3161 3167 3173 3179 3185 3189 3191 3194 3197 3198 3200 3202 3204 3206 3209 3211 3214 3216 3218 3220 3221
3151 3151 3150 3147 3147 3148 3151 3153 3153 3154 3150 3148 3150 3152 3155 3152 3151 3151 3152 3151 3152 3153 3153 3158 3163 3168 3172 3179 3184 3187 3191 3193 3195 3197 3199 3201 3203 3206 3208 3210 3212 3214 3216 3218
3151 3149 3150 3148 3147 3149 3151 3153 3153 3151 3150 3148 3148 3151 3151 3152 3150 3149 3150 3151 3150 3151 3152 3154 3156 3160 3163 3169 3173 3181 3184 3187 3190 3193 3195 3198 3200 3202 3204 3206 3208 3210 3212 3214
3149 3149 3149 3148 3148 3149 3150 3151 3149 3154 3151 3151 3152 3151 3150 3151 3149 3148 3148 3150 3151 3151 3151 3151 3150 3152 3156 3161 3164 3171 3176 3180 3182 3187 3190 3192 3195 3198 3200 3202 3204 3206 3207 3208
3149 3147 3148 3145 3146 3149 3150 3148 3150 3150 3149 3151 3151 3150 3149 3148 3147 3147 3146 3148 3149 3148 3148 3149 3147 3146 3149 3152 3156 3160 3166 3173 3176 3180 3183 3186 3188 3191 3193 3196 3197 3198 3200 3203
3147 3147 3146 3144 3146 3145 3144 3145 3146 3148 3147 3147 3147 3147 3146 3146 3146 3145 3145 3145 3145 3145 3146 3146 3147 3147 3149 3148 3148 3148 3155 3165 3169 3173 3176 3179 3182 3185 3186 3189 3190 3191 3192 3195
3144 3145 3143 3143 3141 3141 3143 3143 3146 3147 3147 3145 3146 3146 3146 3146 3145 3146 3145 3144 3143 3144 3144 3143 3145 3145 3146 3143 3139 3142 3148 3157 3162 3166 3169 3171 3175 3175 3180 3182 3184 3184 3184 3187
3141 3142 3143 3140 3140 3138 3140 3140 3142 3143 3145 3143 3144 3144 3145 3146 3148 3145 3144 3143 3142 3141 3141 3141 3142 3144 3142 3142 3139 3139 3140 3148 3153 3157 3159 3166 3169 3172 3170 3174 3175 3176 3177 3177
3137 3139 3139 3137 3138 3137 3136 3139 3140 3144 3145 3140 3142 3142 3142 3143 3143 3142 3141 3141 3140 3139 3139 3139 3140 3140 3140 3140 3140 3139 3140 3141 3145 3151 3158 3158 3162 3162 3164 3165 3166 3166 3165 3166
3135 3135 3134 3136 3135 3136 3134 3136 3140 3138 3137 3138 3139 3139 3139 3139 3139 3139 3139 3139 3137 3138 3138 3138 3138 3138 3137 3137 3138 3140 3140 3142 3147 3150 3152 3155 3161 3159 3156 3156 3155 3154 3152 3155
3134 3133 3132 3135 3132 3132 3132 3133 3133 3135 3135 3136 3136 3136 3136 3136 3136 3136 3136 3137 3136 3135 3135 3135 3136 3135 3135 3136 3135 3138 3140 3142 3143 3145 3149 3152 3153 3153 3151 3152 3150 3149 3150 3148
3128 3129 3131 3132 3131 3131 3131 3131 3132 3133 3133 3133 3133 3133 3133 3133 3133 3132 3132 3132 3133 3133 3132 3131 3132 3133 3133 3133 3134 3136 3137 3140 3141 3142 3144 3146 3146 3147 3147 3147 3147 3145 3146 3148
3125 3126 3128 3129 3128 3129 3128 3128 3129 3129 3130 3130 3131 3131 3130 3130 3128 3128 3128 3128 3128 3129 3130 3130 3129 3129 3131 3132 3133 3133 3134 3136 3137 3139 3141 3142 3144 3144 3145 3145 3143 3143 3144 3145
3120 3123 3124 3125 3125 3125 3126 3125 3126 3126 3127 3128 3128 3128 3127 3126 3125 3124 3124 3125 3125 3125 3126 3127 3127 3127 3127 3127 3129 3130 3132 3134 3135 3137 3138 3139 3141 3142 3142 3142 3143 3142 3143 3143
Wind_Speed
15 16 21 16 13 3 3 2 1 3 2 4 4 6 10 19 32 25 29 22 19 17 14 12 9 8 8 9 11 14 12 12 16 19 21 19 17 16 14 12 13 14 11 11
13 18 17 13 13 8 6 3 1 1 2 2 6 6 11 11 21 33 30 23 22 20 18 16 12 7 8 9 12 16 15 16 15 17 17 17 16 14 13 12 12 13 12 10
14 14 15 14 12 11 9 6 3 4 6 8 7 9 11 7 12 35 33 26 22 23 21 19 15 9 9 9 13 16 16 16 18 17 15 15 14 13 12 12 10 11 12 11
11 12 13 16 15 13 11 7 4 3 4 7 6 4 9 13 12 35 31 29 26 26 23 21 18 13 9 10 12 16 18 17 18 17 15 13 12 11 12 11 10 11 11 12
7 9 14 16 15 13 6 4 6 6 9 12 9 9 3 14 17 24 34 29 27 26 26 24 21 18 12 13 11 14 18 19 18 16 15 14 15 14 13 11 10 11 10 10
3 9 11 13 15 14 9 7 7 8 9 14 6 9 5 7 14 19 29 33 31 26 26 24 22 21 18 15 14 15 18 19 18 18 17 15 15 15 13 11 10 10 9 9
8 10 10 11 12 15 15 12 13 7 7 7 1 6 4 0 6 9 19 32 34 30 27 27 26 25 22 18 14 15 19 20 20 19 20 19 17 16 15 13 12 11 10 10
8 12 15 14 16 13 20 18 15 4 6 7 4 6 8 4 11 12 18 20 25 35 31 30 29 24 22 18 14 13 18 20 20 20 19 20 20 17 16 15 15 13 11 11
5 4 10 12 13 14 15 18 17 8 13 8 7 4 1 8 8 6 13 20 23 41 36 32 30 26 24 21 15 12 15 20 21 20 20 21 19 18 16 15 14 13 14 13
1 3 7 11 9 14 11 11 12 15 4 5 6 2 8 10 9 3 10 13 14 38 45 31 31 29 27 23 17 16 14 17 21 22 22 22 21 19 19 17 14 14 15 14
1 5 8 9 10 11 12 15 15 8 10 3 3 5 11 13 10 2 3 7 4 29 44 35 31 32 28 25 21 18 18 16 19 22 22 21 21 20 20 18 17 17 16 15
3 6 8 7 5 11 9 15 16 10 10 9 9 2 8 9 10 1 3 5 5 13 41 39 36 34 32 29 26 21 20 18 17 19 21 22 21 20 19 18 19 18 18 17
4 7 10 13 7 9 10 13 16 15 16 18 12 3 11 7 4 4 2 3 7 11 26 37 36 35 33 32 29 25 23 19 17 17 20 21 20 20 19 19 19 19 19 18
3 8 12 12 6 5 7 9 11 16 20 18 10 5 4 9 5 3 5 3 4 11 20 28 35 39 36 36 36 31 28 23 20 17 18 19 19 18 18 19 20 21 22 21
3 8 8 8 6 7 8 4 3 7 8 10 6 2 4 7 8 8 5 4 1 4 7 20 29 33 39 40 39 40 35 32 26 22 20 17 16 16 16 17 20 21 23 23
3 5 6 6 5 7 12 11 12 7 1 4 4 3 3 3 6 6 3 2 7 7 4 3 7 22 38 44 42 47 43 38 37 32 28 26 25 22 21 20 20 23 23 25
6 4 6 9 10 6 12 12 11 10 12 8 10 7 7 5 5 7 6 6 6 5 8 8 3 12 12 30 40 51 50 43 40 35 35 33 31 29 27 26 26 25 25 25
7 6 7 6 7 11 3 8 11 8 9 8 11 9 5 5 4 6 8 5 4 6 10 9 7 5 2 5 32 49 53 46 44 41 37 33 33 31 32 27 31 32 32 29
9 9 8 11 16 7 5 7 6 7 7 9 5 8 7 6 6 6 7 8 7 7 9 10 12 6 7 11 11 31 48 52 43 45 42 36 36 33 33 34 36 36 36 35
10 11 11 10 12 8 2 9 12 10 12 11 11 10 11 9 4 12 8 7 8 8 8 9 10 14 9 2 3 14 18 56 51 28 23 27 33 25 35 38 35 36 37 45
9 11 14 15 14 11 9 12 8 9 4 7 7 9 9 8 12 12 11 11 9 8 6 7 8 11 16 16 15 14 16 30 30 25 34 31 24 25 27 32 37 37 38 36
8 8 9 9 9 11 10 9 8 9 8 6 10 10 10 11 14 15 15 15 16 14 11 10 10 8 11 14 12 10 16 20 26 24 18 22 28 34 27 24 23 32 36 40
8 10 5 8 2 7 5 8 10 11 8 10 10 9 8 9 11 11 10 9 11 16 15 11 10 11 10 9 13 14 14 14 16 20 23 21 21 18 18 19 16 23 13 9
10 9 8 6 9 7 6 6 8 7 7 10 10 9 9 10 10 11 13 12 9 7 10 13 12 7 10 11 9 15 17 16 16 16 16 15 15 16 14 16 18 7 14 18
11 8 9 9 10 9 9 10 11 11 12 11 10 11 12 12 11 10 11 12 12 10 10 8 9 9 8 9 11 12 12 16 15 14 14 13 12 11 9 7 4 4 4 9
18 14 12 11 10 9 9 7 9 11 13 11 12 13 13 10 9 8 7 7 8 8 8 8 9 9 9 10 11 12 13 12 14 11 13 16 14 12 12 12 9 9 13 14
Wind_Direction
188 192 204 208 207 220 178 245 294 187 195 172 224 243 231 203 202 206 190 192 199 185 189 180 159 151 163 157 164 167 153 150 153 159 160 163 166 172 177 183 182 173 172 174
189 205 204 197 205 204 217 220 232 184 325 279 254 239 221 243 225 210 189 192 197 193 193 190 174 170 170 175 171 174 165 159 158 168 177 182 184 187 193 187 187 191 185 179
199 205 203 200 206 209 222 242 244 321 291 296 273 246 239 252 205 188 186 199 199 201 196 197 180 177 178 184 174 177 178 171 171 173 174 179 182 186 193 194 196 200 193 186
201 214 201 200 211 212 224 230 228 276 278 307 268 291 220 227 222 191 201 198 199 201 199 200 191 177 181 184 183 179 182 184 181 178 179 179 181 181 191 198 201 198 202 203
182 205 198 208 213 216 262 238 223 270 287 293 256 264 210 207 211 211 205 206 205 204 199 199 197 190 182 197 199 196 186 190 186 174 178 181 188 193 197 195 200 203 199 186
202 191 202 212 219 221 229 227 251 274 275 265 238 246 121 183 228 227 224 219 204 204 203 201 194 199 193 198 201 202 197 192 194 185 186 184 182 183 189 190 203 201 194 197
209 217 213 206 216 217 215 225 238 239 226 257 196 253 65 172 281 233 222 214 209 205 208 199 197 197 198 192 205 203 200 195 196 192 185 187 188 184 188 193 198 201 199 201
227 184 208 214 211 214 218 224 246 255 277 314 206 223 141 332 318 241 213 217 224 217 206 199 199 199 201 194 195 205 201 200 201 198 193 191 194 198 197 196 199 203 213 214
197 180 186 208 214 210 211 227 247 268 282 263 174 186 137 6 347 246 213 220 236 207 196 202 202 200 207 206 199 196 202 202 200 198 198 201 206 208 201 203 206 213 214 220
248 205 192 204 212 218 219 231 224 231 276 265 153 164 59 352 5 275 217 230 229 205 202 204 206 204 211 211 210 201 199 205 204 202 203 204 203 206 208 214 216 218 221 224
230 253 150 183 216 205 216 220 236 242 265 293 283 3 7 9 2 309 248 221 222 207 200 205 205 204 210 212 216 214 205 207 209 208 207 208 211 211 211 218 221 222 222 224
271 246 186 182 235 210 235 242 186 194 265 251 249 211 301 13 356 200 264 237 215 214 207 207 199 208 213 216 218 215 213 210 204 210 213 214 217 220 223 224 223 224 226 228
278 249 236 205 219 212 214 253 245 258 156 280 268 80 328 342 359 307 252 253 231 198 215 209 211 213 216 220 218 217 212 207 210 214 216 219 222 225 228 228 227 233 232 232
272 250 264 287 323 175 213 251 245 244 256 256 238 282 330 319 321 269 262 279 226 229 228 216 224 219 225 219 216 215 213 212 211 215 213 218 223 230 233 234 236 238 239 240
260 256 254 273 258 213 201 187 243 249 282 304 66 106 305 273 286 291 243 274 193 149 209 230 239 224 221 220 219 215 213 212 214 214 214 215 220 226 232 240 244 246 249 249
295 264 238 220 189 207 219 232 224 254 253 298 306 293 299 290 271 281 253 227 180 178 172 78 354 232 235 230 231 211 212 211 216 212 217 222 226 232 239 241 250 257 256 253
260 258 244 236 204 221 223 202 213 236 254 252 283 264 286 281 318 287 247 247 240 237 212 216 26 6 27 228 225 216 213 214 221 217 221 223 223 229 236 244 247 253 250 254
253 248 240 247 222 230 204 227 223 222 237 234 238 242 251 284 279 265 273 242 236 240 244 249 256 321 348 305 241 222 219 215 225 225 225 231 228 231 241 247 254 256 252 254
234 232 227 248 228 235 258 249 214 218 234 228 215 238 249 258 287 261 273 261 243 234 251 243 232 243 257 6 263 231 229 216 223 225 225 238 243 237 241 244 249 263 265 264
231 230 238 234 266 252 267 234 257 253 253 235 238 255 263 261 270 262 265 260 258 247 247 249 224 238 217 274 223 228 228 216 222 228 235 248 250 256 246 246 258 262 266 268
212 233 240 239 245 254 258 259 254 226 214 233 235 251 255 260 253 261 268 275 269 272 268 266 250 250 241 253 257 253 241 231 224 243 237 264 278 293 262 272 267 276 268 267
230 234 224 236 252 250 256 246 214 233 247 253 263 263 259 260 266 272 270 263 271 275 275 268 267 265 250 246 246 247 234 216 218 217 228 239 235 265 273 270 297 279 259 254
241 229 275 231 254 248 236 222 238 238 239 255 258 264 267 265 260 266 269 265 254 257 268 278 275 274 275 262 241 237 227 231 234 231 233 241 250 256 278 259 271 269 289 261
243 249 226 237 235 236 231 243 240 239 218 243 258 272 282 287 281 271 265 269 263 263 269 267 270 283 269 273 266 238 238 241 238 236 231 252 257 258 245 271 254 262 251 261
243 233 227 236 248 250 257 262 248 248 236 242 260 285 295 298 289 275 269 266 268 265 259 263 267 258 249 245 247 255 243 247 247 242 229 231 229 238 243 191 201 205 231 251
244 234 236 239 248 242 247 262 265 240 231 244 273 283 288 287 284 285 280 270 267 268 268 269 257 255 253 240 236 236 240 224 230 223 223 239 242 239 232 235 215 200 240 245